, MT

(GMT )
West Yellowstone

Weather History for KWYS - October, 2013

Change the Weather History Date:

Sunday, October 13, 2013

  Actual Average Record
Temperature  
Mean Temperature 28 °F -  
Max Temperature 33 °F 51 °F 64 °F (2015)
Min Temperature 24 °F 25 °F 14 °F (2016)
Degree Days  
Heating Degree Days 36    
Moisture  
Dew Point 27 °F    
Average Humidity 87    
Maximum Humidity 93    
Minimum Humidity 80    
Precipitation  
Precipitation 0.36 in - - ()
Sea Level Pressure  
Sea Level Pressure 30.06 in    
Wind  
Wind Speed 1 mph (North)    
Max Wind Speed 14 mph    
Max Gust Speed 20 mph    
Visibility 7 miles    
Events Rain , Snow    
Averages and records for this station are not official NWS values.
T = Trace of Precipitation, MM = Missing Value Source: NWS Daily Summary

Daily Weather History Graph

Daily Weather History Graph

Search for Another Location

Airport or City:

Trip Planner

Search our weather history database for the weather conditions in past years. The results will help you decide how hot, cold, wet, or windy it might be!

Date:

Astronomy

Oct. 13, 2013 Rise Set
Actual Time 7:37 AM MDT 6:42 PM MDT
Civil Twilight 7:08 AM MDT 7:12 PM MDT
Nautical Twilight 6:34 AM MDT 7:45 PM MDT
Astronomical Twilight 6:00 AM MDT 8:19 PM MDT
Moon 3:48 PM MDT (10/13) 1:38 AM MDT (10/13)
Length of Visible Light 12h 03m
Length of Day
11h 05m
Waxing Gibbous, 70% of the Moon is Illuminated
Oct 13
Waxing Gibbous
Oct 18
Full
Oct 26
Last Quarter
Nov 3
New
Nov 9
First Quarter

Hourly Weather History & Observations

Time (MDT) Temp. Windchill Dew Point Humidity Pressure Visibility Wind Dir Wind Speed Gust Speed Precip Events Conditions
12:10 AM 26.6 °F - 23.0 °F 86% 30.09 in 10.0 mi Calm Calm - N/A   Partly Cloudy
12:30 AM 26.6 °F - 23.0 °F 86% 30.08 in 10.0 mi Calm Calm - N/A   Clear
12:50 AM 26.6 °F - 23.0 °F 86% 30.08 in 10.0 mi Calm Calm - N/A   Clear
1:10 AM 26.6 °F - 23.0 °F 86% 30.08 in 10.0 mi Calm Calm - N/A   Mostly Cloudy
1:30 AM 24.8 °F - 23.0 °F 93% 30.09 in 10.0 mi Calm Calm - N/A   Mostly Cloudy
1:50 AM 24.8 °F - 23.0 °F 93% 30.09 in 10.0 mi Calm Calm - N/A   Scattered Clouds
2:10 AM 26.6 °F - 23.0 °F 86% 30.09 in 10.0 mi Calm Calm - N/A   Mostly Cloudy
2:30 AM 26.6 °F - 23.0 °F 86% 30.09 in 10.0 mi Calm Calm - N/A   Overcast
2:50 AM 26.6 °F - 23.0 °F 86% 30.09 in 10.0 mi Calm Calm - N/A   Mostly Cloudy
3:10 AM 26.6 °F 22.6 °F 23.0 °F 86% 30.08 in 10.0 mi ESE 3.5 mph - N/A   Partly Cloudy
3:30 AM 26.6 °F - 23.0 °F 86% 30.08 in 10.0 mi Calm Calm - N/A   Clear
3:50 AM 26.6 °F 22.6 °F 23.0 °F 86% 30.07 in 10.0 mi SW 3.5 mph - N/A   Clear
4:10 AM 26.6 °F - 23.0 °F 86% 30.07 in 10.0 mi Calm Calm - N/A   Partly Cloudy
4:30 AM 26.6 °F 21.2 °F 23.0 °F 86% 30.07 in 10.0 mi West 4.6 mph - N/A   Scattered Clouds
4:50 AM 26.6 °F - 23.0 °F 86% 30.07 in 10.0 mi Calm Calm - N/A   Mostly Cloudy
5:10 AM 26.6 °F - 23.0 °F 86% 30.07 in 10.0 mi Calm Calm - N/A   Overcast
5:30 AM 26.6 °F - 23.0 °F 86% 30.06 in 10.0 mi Calm Calm - N/A   Overcast
5:50 AM 26.6 °F - 23.0 °F 86% 30.06 in 10.0 mi Calm Calm - N/A   Mostly Cloudy
6:10 AM 26.6 °F - 23.0 °F 86% 30.06 in 10.0 mi Calm Calm - N/A   Overcast
6:30 AM 28.4 °F - 24.8 °F 86% 30.07 in 10.0 mi Calm Calm - N/A   Overcast
6:50 AM 28.4 °F - 24.8 °F 86% 30.06 in 10.0 mi Calm Calm - N/A   Overcast
7:10 AM 28.4 °F - 24.8 °F 86% 30.06 in 10.0 mi Calm Calm - N/A   Overcast
7:30 AM 28.4 °F - 24.8 °F 86% 30.06 in 10.0 mi Calm Calm - N/A   Overcast
7:50 AM 28.4 °F - 24.8 °F 86% 30.05 in 8.0 mi Calm Calm - N/A   Overcast
8:10 AM 28.4 °F - 24.8 °F 86% 30.05 in 10.0 mi Calm Calm - N/A   Overcast
8:30 AM 28.4 °F - 24.8 °F 86% 30.06 in 6.0 mi Calm Calm - N/A   Scattered Clouds
8:50 AM 30.2 °F - 26.6 °F 86% 30.06 in 1.0 mi Calm Calm - N/A Snow Light Snow
9:10 AM 30.2 °F - 26.6 °F 86% 30.06 in 0.5 mi Calm Calm - N/A Snow Snow
9:30 AM 30.2 °F - 26.6 °F 86% 30.06 in 0.5 mi Calm Calm - 0.01 in Snow Snow
9:50 AM 32.0 °F - 26.6 °F 80% 30.06 in 0.2 mi Calm Calm - 0.02 in Snow Heavy Snow
10:10 AM 32.0 °F - 26.6 °F 80% 30.06 in 0.5 mi Calm Calm - N/A Snow Snow
10:30 AM 32.0 °F - 26.6 °F 80% 30.05 in 0.5 mi Calm Calm - 0.01 in Snow Snow
10:50 AM 32.0 °F - 28.4 °F 87% 30.05 in 0.5 mi Calm Calm - 0.02 in Snow Snow
11:10 AM 32.0 °F - 28.4 °F 87% 30.05 in 1.0 mi Calm Calm - 0.01 in Snow Light Snow
11:30 AM 32.0 °F - 28.4 °F 87% 30.04 in 0.8 mi Calm Calm - 0.02 in Snow Light Snow
11:50 AM 32.0 °F - 28.4 °F 87% 30.04 in 3.0 mi Calm Calm - 0.06 in   Mostly Cloudy
12:10 PM 32.0 °F 27.5 °F 28.4 °F 87% 30.04 in 3.0 mi NW 4.6 mph - 0.02 in Snow Light Snow
12:30 PM 32.0 °F 27.5 °F 28.4 °F 87% 30.04 in 6.0 mi WNW 4.6 mph - 0.05 in Rain Light Rain
12:50 PM 32.0 °F 27.5 °F 28.4 °F 87% 30.04 in 2.5 mi NW 4.6 mph - 0.08 in   Mostly Cloudy
1:10 PM 32.0 °F 28.7 °F 28.4 °F 87% 30.03 in 3.0 mi North 3.5 mph - 0.02 in Rain Light Rain
1:30 PM 32.0 °F - 28.4 °F 87% 30.03 in 4.0 mi Calm Calm - 0.04 in   Mostly Cloudy
1:50 PM 32.0 °F - 28.4 °F 87% 30.03 in 1.8 mi Calm Calm - 0.06 in   Overcast
2:10 PM 32.0 °F - 28.4 °F 87% 30.02 in 1.0 mi Calm Calm - 0.02 in Snow Light Snow
2:30 PM 32.0 °F - 28.4 °F 87% 30.02 in 0.8 mi Calm Calm - 0.05 in Snow Light Snow
2:50 PM 32.0 °F - 28.4 °F 87% 30.02 in 2.0 mi Calm Calm - 0.07 in Snow Light Snow
3:10 PM 32.0 °F - 28.4 °F 87% 30.03 in 4.0 mi Calm Calm - N/A   Overcast
3:30 PM 32.0 °F - 28.4 °F 87% 30.03 in 5.0 mi Calm Calm - 0.01 in Rain Light Rain
3:50 PM 32.0 °F - 28.4 °F 87% 30.03 in 5.0 mi Calm Calm - 0.02 in Rain Light Rain
4:10 PM 32.0 °F - 28.4 °F 87% 30.03 in 3.0 mi Calm Calm - 0.01 in Rain Light Rain
4:30 PM 32.0 °F - 28.4 °F 87% 30.03 in 1.2 mi Calm Calm - 0.02 in Snow Light Snow
4:50 PM 32.0 °F - 28.4 °F 87% 30.04 in 3.0 mi Calm Calm - 0.03 in Snow Light Snow
5:10 PM 32.0 °F - 28.4 °F 87% 30.04 in 9.0 mi Calm Calm - N/A   Overcast
5:30 PM 32.0 °F - 28.4 °F 87% 30.04 in 10.0 mi Calm Calm - N/A   Overcast
5:50 PM 33.8 °F - 30.2 °F 87% 30.05 in 10.0 mi Calm Calm - N/A   Overcast
6:10 PM 33.8 °F - 30.2 °F 87% 30.05 in 10.0 mi Calm Calm - N/A   Overcast
6:30 PM 33.8 °F - 30.2 °F 87% 30.06 in 10.0 mi Calm Calm - N/A   Overcast
6:50 PM 32.0 °F - 28.4 °F 87% 30.06 in 3.0 mi Calm Calm - N/A   Overcast
7:10 PM 32.0 °F - 28.4 °F 87% 30.06 in 7.0 mi Calm Calm - N/A   Overcast
7:30 PM 32.0 °F - 28.4 °F 87% 30.07 in 7.0 mi Calm Calm - N/A   Overcast
7:50 PM 32.0 °F - 28.4 °F 87% 30.07 in 9.0 mi Calm Calm - N/A   Overcast
8:10 PM 32.0 °F - 28.4 °F 87% 30.08 in 10.0 mi Calm Calm - N/A   Overcast
8:30 PM 32.0 °F 27.5 °F 28.4 °F 87% 30.08 in 10.0 mi NNE 4.6 mph - N/A   Overcast
8:50 PM 32.0 °F 27.5 °F 28.4 °F 87% 30.08 in 10.0 mi NNE 4.6 mph - N/A   Overcast
9:10 PM 32.0 °F 27.5 °F 28.4 °F 87% 30.08 in 10.0 mi NNE 4.6 mph - N/A   Overcast
9:30 PM 32.0 °F 25.6 °F 28.4 °F 87% 30.09 in 10.0 mi NNE 6.9 mph - N/A   Overcast
9:50 PM 32.0 °F 23.6 °F 28.4 °F 87% 30.09 in 10.0 mi NNE 10.4 mph - N/A   Overcast
10:10 PM 32.0 °F 24.8 °F 28.4 °F 87% 30.09 in 10.0 mi NNE 8.1 mph - N/A   Overcast
10:30 PM 32.0 °F 24.2 °F 28.4 °F 87% 30.09 in 10.0 mi NNE 9.2 mph - N/A   Overcast
10:50 PM 32.0 °F 22.5 °F 28.4 °F 87% 30.09 in 10.0 mi NNE 12.7 mph - N/A   Overcast
11:10 PM 32.0 °F 23.0 °F 28.4 °F 87% 30.09 in 10.0 mi NE 11.5 mph 17.3 mph N/A   Overcast
11:30 PM 32.0 °F 22.1 °F 28.4 °F 87% 30.09 in 10.0 mi NE 13.8 mph 19.6 mph N/A   Overcast
11:50 PM 32.0 °F 24.8 °F 28.4 °F 87% 30.10 in 10.0 mi NNE 8.1 mph - N/A   Overcast